Year,Month,Day,Hour,Minute,Value (Times are PST for temperature in C)
2010,03,19,00,00,4.20
2010,03,19,00,01,4.20
2010,03,19,00,02,4.20
2010,03,19,00,03,4.20
2010,03,19,00,04,4.20
2010,03,19,00,05,4.20
2010,03,19,00,06,4.10
2010,03,19,00,07,4.10
2010,03,19,00,08,4.10
2010,03,19,00,09,4.10
2010,03,19,00,10,4.10
2010,03,19,00,11,4.10
2010,03,19,00,12,4.10
2010,03,19,00,13,4.10
2010,03,19,00,14,4.10
2010,03,19,00,15,4.10
2010,03,19,00,16,4.10
2010,03,19,00,17,4.20
2010,03,19,00,18,4.20
2010,03,19,00,19,4.20
2010,03,19,00,20,4.30
2010,03,19,00,21,4.40
2010,03,19,00,22,4.50
2010,03,19,00,23,4.60
2010,03,19,00,24,4.70
2010,03,19,00,25,4.80
2010,03,19,00,26,4.90
2010,03,19,00,27,5.00
2010,03,19,00,28,5.10
2010,03,19,00,29,5.20
2010,03,19,00,30,5.30
2010,03,19,00,31,5.30
2010,03,19,00,32,5.40
2010,03,19,00,33,5.40
2010,03,19,00,34,5.40
2010,03,19,00,35,5.50
2010,03,19,00,36,5.50
2010,03,19,00,37,5.50
2010,03,19,00,38,5.50
2010,03,19,00,39,5.50
2010,03,19,00,40,5.50
2010,03,19,00,41,5.50
2010,03,19,00,42,5.50
2010,03,19,00,43,5.50
2010,03,19,00,44,5.40
2010,03,19,00,45,5.30
2010,03,19,00,46,5.30
2010,03,19,00,47,5.20
2010,03,19,00,48,5.10
2010,03,19,00,49,5.10
2010,03,19,00,50,5.10
2010,03,19,00,51,5.10
2010,03,19,00,52,5.00
2010,03,19,00,53,4.90
2010,03,19,00,54,4.90
2010,03,19,00,55,4.80
2010,03,19,00,56,4.80
2010,03,19,00,57,4.70
2010,03,19,00,58,4.70
2010,03,19,00,59,4.70
2010,03,19,01,00,4.60
2010,03,19,01,01,4.60
2010,03,19,01,02,4.60
2010,03,19,01,03,4.60
2010,03,19,01,04,4.50
2010,03,19,01,05,4.50
2010,03,19,01,06,4.50
2010,03,19,01,07,4.40
2010,03,19,01,08,4.40
2010,03,19,01,09,4.30
2010,03,19,01,10,4.30
2010,03,19,01,11,4.20
2010,03,19,01,12,4.20
2010,03,19,01,13,4.20
2010,03,19,01,14,4.20
2010,03,19,01,15,4.10
2010,03,19,01,16,4.10
2010,03,19,01,17,4.00
2010,03,19,01,18,4.00
2010,03,19,01,19,4.00
2010,03,19,01,20,3.90
2010,03,19,01,21,3.90
2010,03,19,01,22,3.80
2010,03,19,01,23,3.80
2010,03,19,01,24,3.80
2010,03,19,01,25,3.80
2010,03,19,01,26,3.70
2010,03,19,01,27,3.70
2010,03,19,01,28,3.60
2010,03,19,01,29,3.60
2010,03,19,01,30,3.50
2010,03,19,01,31,3.40
2010,03,19,01,32,3.40
2010,03,19,01,33,3.30
2010,03,19,01,34,3.30
2010,03,19,01,35,3.30
2010,03,19,01,36,3.20
2010,03,19,01,37,3.10
2010,03,19,01,38,3.10
2010,03,19,01,39,3.10
2010,03,19,01,40,3.00
2010,03,19,01,41,2.90
2010,03,19,01,42,2.90
2010,03,19,01,43,2.90
2010,03,19,01,44,2.80
2010,03,19,01,45,2.80
2010,03,19,01,46,2.80
2010,03,19,01,47,2.80
2010,03,19,01,48,2.70
2010,03,19,01,49,2.70
2010,03,19,01,50,2.70
2010,03,19,01,51,2.70
2010,03,19,01,52,2.70
2010,03,19,01,53,2.70
2010,03,19,01,54,2.70
2010,03,19,01,55,2.70
2010,03,19,01,56,2.70
2010,03,19,01,57,2.70
2010,03,19,01,58,2.70
2010,03,19,01,59,2.70
2010,03,19,02,00,2.70
2010,03,19,02,01,2.70
2010,03,19,02,02,2.70
2010,03,19,02,03,2.70
2010,03,19,02,04,2.70
2010,03,19,02,05,2.70
2010,03,19,02,06,2.70
2010,03,19,02,07,2.70
2010,03,19,02,08,2.70
2010,03,19,02,09,2.70
2010,03,19,02,10,2.70
2010,03,19,02,11,2.70
2010,03,19,02,12,2.70
2010,03,19,02,13,2.70
2010,03,19,02,14,2.70
2010,03,19,02,15,2.70
2010,03,19,02,16,2.70
2010,03,19,02,17,2.70
2010,03,19,02,18,2.70
2010,03,19,02,19,2.70
2010,03,19,02,20,2.70
2010,03,19,02,21,2.70
2010,03,19,02,22,2.70
2010,03,19,02,23,2.70
2010,03,19,02,24,2.70
2010,03,19,02,25,2.60
2010,03,19,02,26,2.60
2010,03,19,02,27,2.60
2010,03,19,02,28,2.60
2010,03,19,02,29,2.50
2010,03,19,02,30,2.50
2010,03,19,02,31,2.50
2010,03,19,02,32,2.50
2010,03,19,02,33,2.40
2010,03,19,02,34,2.40
2010,03,19,02,35,2.40
2010,03,19,02,36,2.40
2010,03,19,02,37,2.40
2010,03,19,02,38,2.40
2010,03,19,02,39,2.40
2010,03,19,02,40,2.40
2010,03,19,02,41,2.40
2010,03,19,02,42,2.40
2010,03,19,02,43,2.40
2010,03,19,02,44,2.40
2010,03,19,02,45,2.40
2010,03,19,02,46,2.40
2010,03,19,02,47,2.50
2010,03,19,02,48,2.50
2010,03,19,02,49,2.50
2010,03,19,02,50,2.50
2010,03,19,02,51,2.50
2010,03,19,02,52,2.50
2010,03,19,02,53,2.50
2010,03,19,02,54,2.50
2010,03,19,02,55,2.60
2010,03,19,02,56,2.60
2010,03,19,02,57,2.60
2010,03,19,02,58,2.60
2010,03,19,02,59,2.60
2010,03,19,03,00,2.60
2010,03,19,03,01,2.60
2010,03,19,03,02,2.60
2010,03,19,03,03,2.60
2010,03,19,03,04,2.60
2010,03,19,03,05,2.60
2010,03,19,03,06,2.50
2010,03,19,03,07,2.50
2010,03,19,03,08,2.50
2010,03,19,03,09,2.50
2010,03,19,03,10,2.50
2010,03,19,03,11,2.50
2010,03,19,03,12,2.50
2010,03,19,03,13,2.50
2010,03,19,03,14,2.40
2010,03,19,03,15,2.40
2010,03,19,03,16,2.40
2010,03,19,03,17,2.40
2010,03,19,03,18,2.40
2010,03,19,03,19,2.30
2010,03,19,03,20,2.30
2010,03,19,03,21,2.30
2010,03,19,03,22,2.30
2010,03,19,03,23,2.30
2010,03,19,03,24,2.30
2010,03,19,03,25,2.40
2010,03,19,03,26,2.60
2010,03,19,03,27,2.70
2010,03,19,03,28,2.90
2010,03,19,03,29,3.10
2010,03,19,03,30,3.30
2010,03,19,03,31,3.60
2010,03,19,03,32,3.80
2010,03,19,03,33,4.00
2010,03,19,03,34,4.10
2010,03,19,03,35,4.30
2010,03,19,03,36,4.50
2010,03,19,03,37,4.60
2010,03,19,03,38,4.70
2010,03,19,03,39,4.80
2010,03,19,03,40,4.90
2010,03,19,03,41,4.90
2010,03,19,03,42,5.00
2010,03,19,03,43,5.10
2010,03,19,03,44,5.10
2010,03,19,03,45,5.10
2010,03,19,03,46,5.10
2010,03,19,03,47,5.20
2010,03,19,03,48,5.20
2010,03,19,03,49,5.30
2010,03,19,03,50,5.30
2010,03,19,03,51,5.30
2010,03,19,03,52,5.30
2010,03,19,03,53,5.30
2010,03,19,03,54,5.30
2010,03,19,03,55,5.30
2010,03,19,03,56,5.30
2010,03,19,03,57,5.30
2010,03,19,03,58,5.30
2010,03,19,03,59,5.30
2010,03,19,04,00,5.20
2010,03,19,04,01,5.20
2010,03,19,04,02,5.20
2010,03,19,04,03,5.10
2010,03,19,04,04,5.10
2010,03,19,04,05,5.10
2010,03,19,04,06,5.10
2010,03,19,04,07,4.90
2010,03,19,04,08,4.90
2010,03,19,04,09,4.90
2010,03,19,04,10,4.90
2010,03,19,04,11,4.80
2010,03,19,04,12,4.80
2010,03,19,04,13,4.80
2010,03,19,04,14,4.70
2010,03,19,04,15,4.70
2010,03,19,04,16,4.70
2010,03,19,04,17,4.70
2010,03,19,04,18,4.80
2010,03,19,04,19,4.80
2010,03,19,04,20,4.80
2010,03,19,04,21,4.90
2010,03,19,04,22,4.90
2010,03,19,04,23,4.90
2010,03,19,04,24,4.90
2010,03,19,04,25,4.90
2010,03,19,04,26,4.90
2010,03,19,04,27,5.10
2010,03,19,04,28,5.10
2010,03,19,04,29,5.10
2010,03,19,04,30,5.10
2010,03,19,04,31,5.10
2010,03,19,04,32,5.10
2010,03,19,04,33,5.10
2010,03,19,04,34,5.10
2010,03,19,04,35,5.10
2010,03,19,04,36,5.10
2010,03,19,04,37,5.10
2010,03,19,04,38,5.10
2010,03,19,04,39,5.10
2010,03,19,04,40,5.10
2010,03,19,04,41,5.10
2010,03,19,04,42,5.10
2010,03,19,04,43,5.10
2010,03,19,04,44,5.10
2010,03,19,04,45,5.10
2010,03,19,04,46,5.10
2010,03,19,04,47,5.10
2010,03,19,04,48,5.10
2010,03,19,04,49,5.10
2010,03,19,04,50,5.10
2010,03,19,04,51,5.10
2010,03,19,04,52,5.10
2010,03,19,04,53,5.10
2010,03,19,04,54,5.10
2010,03,19,04,55,5.10
2010,03,19,04,56,5.10
2010,03,19,04,57,5.10
2010,03,19,04,58,5.10
2010,03,19,04,59,5.10
2010,03,19,05,00,5.10
2010,03,19,05,01,5.10
2010,03,19,05,02,5.10
2010,03,19,05,03,5.10
2010,03,19,05,04,5.10
2010,03,19,05,05,5.10
2010,03,19,05,06,5.10
2010,03,19,05,07,5.10
2010,03,19,05,08,5.10
2010,03,19,05,09,5.10
2010,03,19,05,10,5.10
2010,03,19,05,11,5.10
2010,03,19,05,12,5.10
2010,03,19,05,13,5.10
2010,03,19,05,14,5.10
2010,03,19,05,15,5.10
2010,03,19,05,16,5.10
2010,03,19,05,17,5.10
2010,03,19,05,18,5.10
2010,03,19,05,19,5.10
2010,03,19,05,20,5.10
2010,03,19,05,21,5.10
2010,03,19,05,22,5.10
2010,03,19,05,23,5.10
2010,03,19,05,24,5.10
2010,03,19,05,25,5.10
2010,03,19,05,26,5.10
2010,03,19,05,27,5.10
2010,03,19,05,28,5.10
2010,03,19,05,29,5.00
2010,03,19,05,30,4.90
2010,03,19,05,31,4.90
2010,03,19,05,32,4.90
2010,03,19,05,33,4.90
2010,03,19,05,34,4.90
2010,03,19,05,35,4.90
2010,03,19,05,36,4.90
2010,03,19,05,37,4.90
2010,03,19,05,38,4.90
2010,03,19,05,39,4.90
2010,03,19,05,40,4.90
2010,03,19,05,41,4.90
2010,03,19,05,42,4.90
2010,03,19,05,43,4.90
2010,03,19,05,44,4.90
2010,03,19,05,45,4.90
2010,03,19,05,46,4.90
2010,03,19,05,47,4.90
2010,03,19,05,48,4.90
2010,03,19,05,49,4.90
2010,03,19,05,50,4.90
2010,03,19,05,51,4.90
2010,03,19,05,52,4.90
2010,03,19,05,53,4.90
2010,03,19,05,54,4.90
2010,03,19,05,55,4.90
2010,03,19,05,56,4.90
2010,03,19,05,57,4.90
2010,03,19,05,58,4.90
2010,03,19,05,59,4.90
2010,03,19,06,00,4.90
2010,03,19,06,01,4.80
2010,03,19,06,02,4.80
2010,03,19,06,03,4.80
2010,03,19,06,04,4.80
2010,03,19,06,05,4.80
2010,03,19,06,06,4.70
2010,03,19,06,07,4.70
2010,03,19,06,08,4.70
2010,03,19,06,09,4.60
2010,03,19,06,10,4.60
2010,03,19,06,11,4.60
2010,03,19,06,12,4.60
2010,03,19,06,13,4.60
2010,03,19,06,14,4.60
2010,03,19,06,15,4.60
2010,03,19,06,16,4.60
2010,03,19,06,17,4.50
2010,03,19,06,18,4.50
2010,03,19,06,19,4.50
2010,03,19,06,20,4.50
2010,03,19,06,21,4.50
2010,03,19,06,22,4.40
2010,03,19,06,23,4.40
2010,03,19,06,24,4.40
2010,03,19,06,25,4.40
2010,03,19,06,26,4.40
2010,03,19,06,27,4.40
2010,03,19,06,28,4.30
2010,03,19,06,29,4.30
2010,03,19,06,30,4.30
2010,03,19,06,31,4.30
2010,03,19,06,32,4.30
2010,03,19,06,33,4.20
2010,03,19,06,34,4.20
2010,03,19,06,35,4.20
2010,03,19,06,36,4.20
2010,03,19,06,37,4.20
2010,03,19,06,38,4.20
2010,03,19,06,39,4.20
2010,03,19,06,40,4.20
2010,03,19,06,41,4.20
2010,03,19,06,42,4.20
2010,03,19,06,43,4.20
2010,03,19,06,44,4.20
2010,03,19,06,45,4.20
2010,03,19,06,46,4.20
2010,03,19,06,47,4.20
2010,03,19,06,48,4.20
2010,03,19,06,49,4.10
2010,03,19,06,50,4.10
2010,03,19,06,51,4.10
2010,03,19,06,52,4.10
2010,03,19,06,53,4.00
2010,03,19,06,54,4.00
2010,03,19,06,55,4.00
2010,03,19,06,56,4.00
2010,03,19,06,57,4.10
2010,03,19,06,58,4.10
2010,03,19,06,59,4.10
2010,03,19,07,00,4.10
2010,03,19,07,01,4.10
2010,03,19,07,02,4.10
2010,03,19,07,03,4.10
2010,03,19,07,04,4.10
2010,03,19,07,05,4.20
2010,03,19,07,06,4.20
2010,03,19,07,07,4.20
2010,03,19,07,08,4.20
2010,03,19,07,09,4.20
2010,03,19,07,10,4.20
2010,03,19,07,11,4.20
2010,03,19,07,12,4.20
2010,03,19,07,13,4.20
2010,03,19,07,14,4.20
2010,03,19,07,15,4.20
2010,03,19,07,16,4.20
2010,03,19,07,17,4.20
2010,03,19,07,18,4.20
2010,03,19,07,19,4.20
2010,03,19,07,20,4.30
2010,03,19,07,21,4.30
2010,03,19,07,22,4.30
2010,03,19,07,23,4.30
2010,03,19,07,24,4.40
2010,03,19,07,25,4.40
2010,03,19,07,26,4.50
2010,03,19,07,27,4.50
2010,03,19,07,28,4.50
2010,03,19,07,29,4.60
2010,03,19,07,30,4.60
2010,03,19,07,31,4.60
2010,03,19,07,32,4.60
2010,03,19,07,33,4.60
2010,03,19,07,34,4.60
2010,03,19,07,35,4.70
2010,03,19,07,36,4.70
2010,03,19,07,37,4.70
2010,03,19,07,38,4.80
2010,03,19,07,39,4.80
2010,03,19,07,40,4.80
2010,03,19,07,41,4.90
2010,03,19,07,42,4.90
2010,03,19,07,43,4.90
2010,03,19,07,44,4.90
2010,03,19,07,45,4.90
2010,03,19,07,46,4.90
2010,03,19,07,47,4.90
2010,03,19,07,48,4.90
2010,03,19,07,49,4.90
2010,03,19,07,50,5.10
2010,03,19,07,51,5.10
2010,03,19,07,52,5.10
2010,03,19,07,53,5.10
2010,03,19,07,54,5.10
2010,03,19,07,55,5.10
2010,03,19,07,56,5.20
2010,03,19,07,57,5.20
2010,03,19,07,58,5.20
2010,03,19,07,59,5.20
2010,03,19,08,00,5.30
2010,03,19,08,01,5.30
2010,03,19,08,02,5.40
2010,03,19,08,03,5.40
2010,03,19,08,04,5.50
2010,03,19,08,05,5.60
2010,03,19,08,06,5.60
2010,03,19,08,07,5.70
2010,03,19,08,08,5.70
2010,03,19,08,09,5.70
2010,03,19,08,10,5.70
2010,03,19,08,11,5.80
2010,03,19,08,12,5.80
2010,03,19,08,13,5.80
2010,03,19,08,14,5.80
2010,03,19,08,15,5.80
2010,03,19,08,16,5.80
2010,03,19,08,17,5.90
2010,03,19,08,18,5.90
2010,03,19,08,19,5.90
2010,03,19,08,20,5.90
2010,03,19,08,21,5.90
2010,03,19,08,22,5.90
2010,03,19,08,23,5.90
2010,03,19,08,24,6.00
2010,03,19,08,25,6.00
2010,03,19,08,26,6.00
2010,03,19,08,27,6.10
2010,03,19,08,28,6.10
2010,03,19,08,29,6.20
2010,03,19,08,30,6.20
2010,03,19,08,31,6.20
2010,03,19,08,32,6.20
2010,03,19,08,33,6.20
2010,03,19,08,34,6.20
2010,03,19,08,35,6.30
2010,03,19,08,36,6.30
2010,03,19,08,37,6.30
2010,03,19,08,38,6.40
2010,03,19,08,39,6.40
2010,03,19,08,40,6.40
2010,03,19,08,41,6.40
2010,03,19,08,42,6.40
2010,03,19,08,43,6.50
2010,03,19,08,44,6.60
2010,03,19,08,45,6.60
2010,03,19,08,46,6.60
2010,03,19,08,47,6.60
2010,03,19,08,48,6.70
2010,03,19,08,49,6.70
2010,03,19,08,50,6.80
2010,03,19,08,51,6.80
2010,03,19,08,52,6.80
2010,03,19,08,53,6.90
2010,03,19,08,54,6.90
2010,03,19,08,55,7.00
2010,03,19,08,56,7.00
2010,03,19,08,57,7.00
2010,03,19,08,58,7.10
2010,03,19,08,59,7.10
2010,03,19,09,00,7.20
2010,03,19,09,01,7.20
2010,03,19,09,02,7.20
2010,03,19,09,03,7.20
2010,03,19,09,04,7.30
2010,03,19,09,05,7.30
2010,03,19,09,06,7.30
2010,03,19,09,07,7.30
2010,03,19,09,08,7.30
2010,03,19,09,09,7.30
2010,03,19,09,10,7.30
2010,03,19,09,11,7.40
2010,03,19,09,12,7.40
2010,03,19,09,13,7.40
2010,03,19,09,14,7.50
2010,03,19,09,15,7.50
2010,03,19,09,16,7.50
2010,03,19,09,17,7.60
2010,03,19,09,18,7.60
2010,03,19,09,19,7.60
2010,03,19,09,20,7.60
2010,03,19,09,21,7.60
2010,03,19,09,22,7.70
2010,03,19,09,23,7.70
2010,03,19,09,24,7.70
2010,03,19,09,25,7.80
2010,03,19,09,26,7.80
2010,03,19,09,27,7.80
2010,03,19,09,28,7.80
2010,03,19,09,29,7.90
2010,03,19,09,30,7.90
2010,03,19,09,31,8.00
2010,03,19,09,32,8.00
2010,03,19,09,33,8.10
2010,03,19,09,34,8.10
2010,03,19,09,35,8.10
2010,03,19,09,36,8.20
2010,03,19,09,37,8.20
2010,03,19,09,38,8.20
2010,03,19,09,39,8.20
2010,03,19,09,40,8.20
2010,03,19,09,41,8.20
2010,03,19,09,42,8.20
2010,03,19,09,43,8.20
2010,03,19,09,44,8.20
2010,03,19,09,45,8.20
2010,03,19,09,46,8.20
2010,03,19,09,47,8.20
2010,03,19,09,48,8.20
2010,03,19,09,49,8.20
2010,03,19,09,50,8.20
2010,03,19,09,51,8.20
2010,03,19,09,52,8.20
2010,03,19,09,53,8.20
2010,03,19,09,54,8.20
2010,03,19,09,55,8.20
2010,03,19,09,56,8.30
2010,03,19,09,57,8.40
2010,03,19,09,58,8.40
2010,03,19,09,59,8.50
2010,03,19,10,00,8.50
2010,03,19,10,01,8.60
2010,03,19,10,02,8.60
2010,03,19,10,03,8.70
2010,03,19,10,04,8.70
2010,03,19,10,05,8.70
2010,03,19,10,06,8.70
2010,03,19,10,07,8.70
2010,03,19,10,08,8.70
2010,03,19,10,09,8.70
2010,03,19,10,10,8.70
2010,03,19,10,11,8.80
2010,03,19,10,12,8.80
2010,03,19,10,13,8.90
2010,03,19,10,14,8.90
2010,03,19,10,15,8.90
2010,03,19,10,16,8.90
2010,03,19,10,17,8.80
2010,03,19,10,18,8.90
2010,03,19,10,19,8.90
2010,03,19,10,20,8.80
2010,03,19,10,21,8.80
2010,03,19,10,22,8.80
2010,03,19,10,23,8.90
2010,03,19,10,24,8.90
2010,03,19,10,25,9.00
2010,03,19,10,26,9.00
2010,03,19,10,27,9.00
2010,03,19,10,28,9.00
2010,03,19,10,29,9.00
2010,03,19,10,30,9.00
2010,03,19,10,31,8.90
2010,03,19,10,32,8.90
2010,03,19,10,33,8.90
2010,03,19,10,34,8.90
2010,03,19,10,35,8.90
2010,03,19,10,36,8.90
2010,03,19,10,37,8.90
2010,03,19,10,38,8.90
2010,03,19,10,39,8.90
2010,03,19,10,40,8.90
2010,03,19,10,41,8.80
2010,03,19,10,42,8.80
2010,03,19,10,43,8.90
2010,03,19,10,44,8.90
2010,03,19,10,45,8.90
2010,03,19,10,46,8.90
2010,03,19,10,47,8.90
2010,03,19,10,48,8.90
2010,03,19,10,49,8.90
2010,03,19,10,50,8.90
2010,03,19,10,51,9.00
2010,03,19,10,52,9.00
2010,03,19,10,53,9.00
2010,03,19,10,54,8.90
2010,03,19,10,55,8.90
2010,03,19,10,56,9.00
2010,03,19,10,57,8.90
2010,03,19,10,58,8.90
2010,03,19,10,59,8.90
2010,03,19,11,00,8.90
2010,03,19,11,01,8.80
2010,03,19,11,02,8.90
2010,03,19,11,03,8.90
2010,03,19,11,04,8.90
2010,03,19,11,05,8.90
2010,03,19,11,06,9.00
2010,03,19,11,07,9.00
2010,03,19,11,08,9.00
2010,03,19,11,09,9.00
2010,03,19,11,10,9.10
2010,03,19,11,11,9.10
2010,03,19,11,12,9.00
2010,03,19,11,13,9.00
2010,03,19,11,14,9.00
2010,03,19,11,15,9.00
2010,03,19,11,16,9.10
2010,03,19,11,17,9.00
2010,03,19,11,18,9.00
2010,03,19,11,19,9.00
2010,03,19,11,20,9.00
2010,03,19,11,21,9.00
2010,03,19,11,22,9.00
2010,03,19,11,23,9.00
2010,03,19,11,24,9.00
2010,03,19,11,25,9.00
2010,03,19,11,26,9.00
2010,03,19,11,27,9.00
2010,03,19,11,28,9.00
2010,03,19,11,29,9.00
2010,03,19,11,30,8.90
2010,03,19,11,31,8.90
2010,03,19,11,32,9.00
2010,03,19,11,33,9.00
2010,03,19,11,34,9.00
2010,03,19,11,35,9.00
2010,03,19,11,36,9.00
2010,03,19,11,37,9.10
2010,03,19,11,38,9.10
2010,03,19,11,39,9.20
2010,03,19,11,40,9.20
2010,03,19,11,41,9.20
2010,03,19,11,42,9.20
2010,03,19,11,43,9.20
2010,03,19,11,44,9.20
2010,03,19,11,45,9.20
2010,03,19,11,46,9.20
2010,03,19,11,47,9.10
2010,03,19,11,48,9.20
2010,03,19,11,49,9.10
2010,03,19,11,50,9.10
2010,03,19,11,51,9.10
2010,03,19,11,52,9.00
2010,03,19,11,53,9.00
2010,03,19,11,54,9.00
2010,03,19,11,55,9.00
2010,03,19,11,56,9.00
2010,03,19,11,57,9.10
2010,03,19,11,58,9.10
2010,03,19,11,59,9.20
2010,03,19,12,00,9.20
2010,03,19,12,01,9.20
2010,03,19,12,02,9.30
2010,03,19,12,03,9.40
2010,03,19,12,04,9.40
2010,03,19,12,05,9.40
2010,03,19,12,06,9.40
2010,03,19,12,07,9.50
2010,03,19,12,08,9.50
2010,03,19,12,09,9.60
2010,03,19,12,10,9.60
2010,03,19,12,11,9.60
2010,03,19,12,12,9.60
2010,03,19,12,13,9.50
2010,03,19,12,14,9.50
2010,03,19,12,15,9.50
2010,03,19,12,16,9.50
2010,03,19,12,17,9.60
2010,03,19,12,18,9.60
2010,03,19,12,19,9.70
2010,03,19,12,20,9.70
2010,03,19,12,21,9.70
2010,03,19,12,22,9.70
2010,03,19,12,23,9.70
2010,03,19,12,24,9.70
2010,03,19,12,25,9.70
2010,03,19,12,26,9.70
2010,03,19,12,27,9.70
2010,03,19,12,28,9.70
2010,03,19,12,29,9.70
2010,03,19,12,30,9.70
2010,03,19,12,31,9.70
2010,03,19,12,32,9.70
2010,03,19,12,33,9.70
2010,03,19,12,34,9.70
2010,03,19,12,35,9.80
2010,03,19,12,36,9.80
2010,03,19,12,37,9.80
2010,03,19,12,38,9.90
2010,03,19,12,39,9.90
2010,03,19,12,40,9.90
2010,03,19,12,41,9.90
2010,03,19,12,42,9.90
2010,03,19,12,43,9.90
2010,03,19,12,44,9.90
2010,03,19,12,45,9.90
2010,03,19,12,46,10.00
2010,03,19,12,47,10.10
2010,03,19,12,48,10.10
2010,03,19,12,49,10.10
2010,03,19,12,50,10.10
2010,03,19,12,51,10.00
2010,03,19,12,52,10.10
2010,03,19,12,53,10.10
2010,03,19,12,54,10.10
2010,03,19,12,55,10.10
2010,03,19,12,56,10.10
2010,03,19,12,57,10.10
2010,03,19,12,58,10.10
2010,03,19,12,59,10.10
2010,03,19,13,00,10.00
2010,03,19,13,01,9.90
2010,03,19,13,02,9.90
2010,03,19,13,03,9.90
2010,03,19,13,04,9.90
2010,03,19,13,05,9.90
2010,03,19,13,06,9.90
2010,03,19,13,07,9.90
2010,03,19,13,08,9.90
2010,03,19,13,09,9.90
2010,03,19,13,10,9.90
2010,03,19,13,11,9.90
2010,03,19,13,12,9.90
2010,03,19,13,13,9.90
2010,03,19,13,14,9.90
2010,03,19,13,15,9.90
2010,03,19,13,16,9.90
2010,03,19,13,17,9.90
2010,03,19,13,18,9.90
2010,03,19,13,19,9.90
2010,03,19,13,20,10.00
2010,03,19,13,21,10.10
2010,03,19,13,22,10.20
2010,03,19,13,23,10.30
2010,03,19,13,24,10.30
2010,03,19,13,25,10.30
2010,03,19,13,26,10.30
2010,03,19,13,27,10.30
2010,03,19,13,28,10.20
2010,03,19,13,29,10.20
2010,03,19,13,30,10.20
2010,03,19,13,31,10.10
2010,03,19,13,32,10.10
2010,03,19,13,33,10.10
2010,03,19,13,34,10.10
2010,03,19,13,35,10.20
2010,03,19,13,36,10.30
2010,03,19,13,37,10.30
2010,03,19,13,38,10.30
2010,03,19,13,39,10.30
2010,03,19,13,40,10.20
2010,03,19,13,41,10.30
2010,03,19,13,42,10.20
2010,03,19,13,43,10.20
2010,03,19,13,44,10.10
2010,03,19,13,45,10.10
2010,03,19,13,46,10.10
2010,03,19,13,47,10.10
2010,03,19,13,48,10.10
2010,03,19,13,49,10.20
2010,03,19,13,50,10.20
2010,03,19,13,51,10.20
2010,03,19,13,52,10.20
2010,03,19,13,53,10.20
2010,03,19,13,54,10.20
2010,03,19,13,55,10.20
2010,03,19,13,56,10.30
2010,03,19,13,57,10.40
2010,03,19,13,58,10.40
2010,03,19,13,59,10.60
2010,03,19,14,00,10.60
2010,03,19,14,01,10.60
2010,03,19,14,02,10.70
2010,03,19,14,03,10.80
2010,03,19,14,04,10.80
2010,03,19,14,05,10.90
2010,03,19,14,06,10.90
2010,03,19,14,07,10.90
2010,03,19,14,08,10.90
2010,03,19,14,09,10.90
2010,03,19,14,10,11.00
2010,03,19,14,11,11.10
2010,03,19,14,12,11.10
2010,03,19,14,13,11.10
2010,03,19,14,14,11.10
2010,03,19,14,15,11.10
2010,03,19,14,16,11.10
2010,03,19,14,17,11.00
2010,03,19,14,18,10.90
2010,03,19,14,19,10.90
2010,03,19,14,20,10.90
2010,03,19,14,21,10.90
2010,03,19,14,22,10.90
2010,03,19,14,23,10.90
2010,03,19,14,24,10.90
2010,03,19,14,25,10.90
2010,03,19,14,26,11.00
2010,03,19,14,27,11.10
2010,03,19,14,28,11.10
2010,03,19,14,29,11.10
2010,03,19,14,30,11.10
2010,03,19,14,31,11.10
2010,03,19,14,32,11.10
2010,03,19,14,33,11.10
2010,03,19,14,34,11.10
2010,03,19,14,35,11.10
2010,03,19,14,36,11.10
2010,03,19,14,37,11.10
2010,03,19,14,38,11.10
2010,03,19,14,39,11.10
2010,03,19,14,40,11.10
2010,03,19,14,41,11.10
2010,03,19,14,42,11.10
2010,03,19,14,43,11.10
2010,03,19,14,44,11.10
2010,03,19,14,45,11.20
2010,03,19,14,46,11.20
2010,03,19,14,47,11.20
2010,03,19,14,48,11.30
2010,03,19,14,49,11.30
2010,03,19,14,50,11.40
2010,03,19,14,51,11.40
2010,03,19,14,52,11.30
2010,03,19,14,53,11.20
2010,03,19,14,54,11.10
2010,03,19,14,55,11.10
2010,03,19,14,56,11.10
2010,03,19,14,57,11.10
2010,03,19,14,58,11.10
2010,03,19,14,59,11.10
2010,03,19,15,00,11.10
2010,03,19,15,01,11.10
2010,03,19,15,02,11.10
2010,03,19,15,03,11.10
2010,03,19,15,04,11.10
2010,03,19,15,05,11.10
2010,03,19,15,06,11.10
2010,03,19,15,07,11.10
2010,03,19,15,08,11.10
2010,03,19,15,09,11.10
2010,03,19,15,10,11.10
2010,03,19,15,11,11.10
2010,03,19,15,12,11.10
2010,03,19,15,13,11.10
2010,03,19,15,14,11.10
2010,03,19,15,15,11.00
2010,03,19,15,16,10.90
2010,03,19,15,17,10.90
2010,03,19,15,18,10.90
2010,03,19,15,19,10.90
2010,03,19,15,20,10.90
2010,03,19,15,21,10.90
2010,03,19,15,22,10.90
2010,03,19,15,23,10.90
2010,03,19,15,24,11.00
2010,03,19,15,25,11.00
2010,03,19,15,26,11.10
2010,03,19,15,27,11.10
2010,03,19,15,28,11.10
2010,03,19,15,29,11.10
2010,03,19,15,30,11.10
2010,03,19,15,31,11.10
2010,03,19,15,32,11.10
2010,03,19,15,33,11.10
2010,03,19,15,34,11.10
2010,03,19,15,35,11.10
2010,03,19,15,36,11.10
2010,03,19,15,37,11.10
2010,03,19,15,38,11.20
2010,03,19,15,39,11.20
2010,03,19,15,40,11.20
2010,03,19,15,41,11.20
2010,03,19,15,42,11.20
2010,03,19,15,43,11.20
2010,03,19,15,44,11.30
2010,03,19,15,45,11.30
2010,03,19,15,46,11.40
2010,03,19,15,47,11.40
2010,03,19,15,48,11.40
2010,03,19,15,49,11.40
2010,03,19,15,50,11.40
2010,03,19,15,51,11.50
2010,03,19,15,52,11.60
2010,03,19,15,53,11.60
2010,03,19,15,54,11.60
2010,03,19,15,55,11.60
2010,03,19,15,56,11.50
2010,03,19,15,57,11.40
2010,03,19,15,58,11.40
2010,03,19,15,59,11.40
2010,03,19,16,00,11.40
2010,03,19,16,01,11.40
2010,03,19,16,02,11.30
2010,03,19,16,03,11.30
2010,03,19,16,04,11.30
2010,03,19,16,05,11.20
2010,03,19,16,06,11.20
2010,03,19,16,07,11.30
2010,03,19,16,08,11.30
2010,03,19,16,09,11.40
2010,03,19,16,10,11.40
2010,03,19,16,11,11.40
2010,03,19,16,12,11.40
2010,03,19,16,13,11.40
2010,03,19,16,14,11.40
2010,03,19,16,15,11.40
2010,03,19,16,16,11.40
2010,03,19,16,17,11.40
2010,03,19,16,18,11.40
2010,03,19,16,19,11.40
2010,03,19,16,20,11.40
2010,03,19,16,21,11.60
2010,03,19,16,22,11.60
2010,03,19,16,23,11.60
2010,03,19,16,24,11.60
2010,03,19,16,25,11.60
2010,03,19,16,26,11.60
2010,03,19,16,27,11.60
2010,03,19,16,28,11.60
2010,03,19,16,29,11.40
2010,03,19,16,30,11.40
2010,03,19,16,31,11.50
2010,03,19,16,32,11.60
2010,03,19,16,33,11.60
2010,03,19,16,34,11.60
2010,03,19,16,35,11.60
2010,03,19,16,36,11.60
2010,03,19,16,37,11.50
2010,03,19,16,38,11.40
2010,03,19,16,39,11.40
2010,03,19,16,40,11.40
2010,03,19,16,41,11.40
2010,03,19,16,42,11.40
2010,03,19,16,43,11.40
2010,03,19,16,44,11.40
2010,03,19,16,45,11.40
2010,03,19,16,46,11.40
2010,03,19,16,47,11.40
2010,03,19,16,48,11.40
2010,03,19,16,49,11.40
2010,03,19,16,50,11.40
2010,03,19,16,51,11.40
2010,03,19,16,52,11.40
2010,03,19,16,53,11.40
2010,03,19,16,54,11.40
2010,03,19,16,55,11.40
2010,03,19,16,56,11.40
2010,03,19,16,57,11.40
2010,03,19,16,58,11.40
2010,03,19,16,59,11.40
2010,03,19,17,00,11.60
2010,03,19,17,01,11.60
2010,03,19,17,02,11.60
2010,03,19,17,03,11.60
2010,03,19,17,04,11.60
2010,03,19,17,05,11.60
2010,03,19,17,06,11.50
2010,03,19,17,07,11.40
2010,03,19,17,08,11.40
2010,03,19,17,09,11.40
2010,03,19,17,10,11.40
2010,03,19,17,11,11.40
2010,03,19,17,12,11.40
2010,03,19,17,13,11.40
2010,03,19,17,14,11.40
2010,03,19,17,15,11.40
2010,03,19,17,16,11.40
2010,03,19,17,17,11.40
2010,03,19,17,18,11.40
2010,03,19,17,19,11.50
2010,03,19,17,20,11.60
2010,03,19,17,21,11.60
2010,03,19,17,22,11.60
2010,03,19,17,23,11.60
2010,03,19,17,24,11.60
2010,03,19,17,25,11.60
2010,03,19,17,26,11.60
2010,03,19,17,27,11.50
2010,03,19,17,28,11.40
2010,03,19,17,29,11.40
2010,03,19,17,30,11.50
2010,03,19,17,31,11.60
2010,03,19,17,32,11.60
2010,03,19,17,33,11.60
2010,03,19,17,34,11.60
2010,03,19,17,35,11.60
2010,03,19,17,36,11.60
2010,03,19,17,37,11.60
2010,03,19,17,38,11.60
2010,03,19,17,39,11.60
2010,03,19,17,40,11.60
2010,03,19,17,41,11.60
2010,03,19,17,42,11.60
2010,03,19,17,43,11.50
2010,03,19,17,44,11.40
2010,03,19,17,45,11.40
2010,03,19,17,46,11.40
2010,03,19,17,47,11.40
2010,03,19,17,48,11.40
2010,03,19,17,49,11.40
2010,03,19,17,50,11.40
2010,03,19,17,51,11.40
2010,03,19,17,52,11.40
2010,03,19,17,53,11.40